Vertical_Velocity
-1 -2 6 6 -2 2 2 -1 -1 -2 4 1 0 -2 0 -4 3 -2 -3 -2 -0 2 -1 4 -5 -0 1
3 -2 1 2 1 4 3 -1 -1 3 2 0 -3 -1 -7 3 -2 2 -2 1 2 -0 3 -2 -5 2 0
3 0 3 -1 -3 3 -1 -2 -1 -1 0 -7 -3 -2 1 -0 1 0 2 -0 1 1 -1 -2 -1 -0 -1
5 2 -2 -2 -3 2 1 0 -5 -4 0 3 1 1 0 1 1 0 -0 2 1 -1 -2 -2 -1 0 -1
5 -6 -4 -4 -3 -0 2 -1 2 2 -1 0 2 2 2 1 1 1 1 -1 -3 -3 -1 1 0 -2 -2
0 -5 -3 -4 1 2 0 1 -1 0 -0 -1 0 -1 -2 -1 -1 -0 -0 -1 -1 1 0 1 -0 -1 -0
0 1 -1 1 -0 -3 1 0 -1 -2 -1 -0 -0 -0 -1 -2 -3 -1 1 1 1 0 -1 -2 -1 -0 -1
-1 2 1 -1 1 1 1 1 1 -1 0 -2 -1 1 -3 -2 1 -1 1 0 0 -0 1 -1 -2 -2 -2
-1 -1 0 -4 -1 3 -0 -2 -2 -1 -1 0 0 -2 -1 1 2 -3 -1 -0 1 0 -0 -1 -1 -1 -3
-1 -1 -2 1 1 -1 -1 -1 -1 0 0 -3 -2 -2 -2 -2 -0 -1 1 2 1 1 2 -0 -0 -2 -2
-2 0 1 -3 -3 -1 -0 -0 -0 -0 -1 -1 -2 -1 -1 -6 -4 2 0 5 3 3 3 1 -1 1 -4
-0 -1 -2 -1 -0 -0 -1 -1 -1 -2 -3 -2 -2 -1 -0 -5 -9 -4 -2 -1 -4 -3 -4 -1 1 -0 3
0 1 -0 -1 -2 -2 -0 -1 -0 -1 -1 -1 -0 -1 1 -2 -6 -5 -10 -7 1 -3 0 -1 -3 0 -10
-0 -0 0 1 -0 -0 0 -0 -1 -0 -1 0 -0 -1 0 2 -1 -9 1 -7 -1 5 5 1 0 1 -2
-1 -2 -3 -2 0 1 1 -1 -1 -1 1 2 1 -1 -2 -2 -7 7 -0 -7 2 -7 -6 -7 1 -1 -1
-1 0 2 3 2 2 0 0 -2 1 -2 2 2 -1 -3 -3 7 -7 -2 -4 -0 -3 -1 -8 -13 4 0
1 1 0 0 -1 1 1 -0 -1 -0 -0 1 -1 1 -3 -6 -7 3 -4 -2 -5 3 3 3 -6 -8 -6
Height
1482 1483 1486 1489 1492 1496 1498 1501 1504 1506 1506 1507 1507 1508 1507 1511 1509 1508 1508 1506 1507 1505 1503 1503 1501 1501 1499
1476 1479 1481 1484 1489 1493 1494 1497 1500 1501 1501 1502 1503 1504 1505 1506 1503 1502 1502 1501 1501 1500 1498 1495 1497 1496 1493
1471 1474 1477 1482 1486 1489 1490 1493 1495 1497 1497 1499 1500 1500 1500 1499 1498 1497 1497 1496 1496 1494 1492 1492 1491 1490 1487
1467 1471 1474 1478 1483 1485 1487 1490 1492 1493 1494 1495 1495 1494 1494 1494 1493 1492 1491 1490 1489 1488 1487 1486 1485 1483 1482
1464 1468 1471 1475 1479 1482 1485 1486 1488 1489 1490 1491 1490 1490 1490 1489 1488 1487 1486 1485 1484 1483 1482 1481 1480 1478 1476
1463 1465 1469 1473 1476 1479 1482 1483 1485 1486 1486 1487 1487 1486 1485 1484 1484 1483 1482 1481 1480 1478 1477 1475 1474 1472 1470
1462 1465 1468 1471 1474 1478 1480 1480 1482 1483 1484 1483 1484 1483 1482 1481 1479 1478 1477 1475 1474 1472 1472 1470 1468 1466 1464
1462 1465 1467 1470 1474 1477 1478 1479 1480 1481 1481 1481 1480 1479 1478 1476 1474 1472 1471 1470 1469 1468 1466 1463 1461 1459 1456
1462 1465 1468 1471 1474 1475 1477 1478 1478 1478 1478 1478 1477 1475 1473 1471 1468 1466 1466 1466 1465 1463 1459 1456 1453 1450 1447
1464 1467 1470 1472 1474 1474 1476 1476 1477 1476 1476 1475 1473 1472 1469 1466 1466 1465 1463 1461 1459 1455 1452 1448 1445 1441 1438
1467 1468 1469 1471 1473 1474 1475 1475 1474 1473 1473 1472 1470 1468 1466 1463 1461 1461 1458 1456 1452 1449 1445 1441 1437 1433 1429
1467 1468 1470 1471 1472 1473 1473 1473 1472 1472 1470 1468 1466 1464 1461 1457 1455 1453 1450 1448 1444 1439 1435 1433 1430 1427 1424
1468 1469 1470 1470 1471 1471 1471 1470 1469 1468 1466 1464 1462 1459 1457 1453 1450 1447 1442 1439 1436 1432 1428 1424 1421 1418 1414
1468 1469 1469 1469 1469 1469 1469 1467 1466 1465 1463 1460 1457 1454 1452 1449 1445 1441 1440 1432 1429 1424 1418 1414 1411 1409 1405
1468 1468 1468 1468 1467 1466 1465 1464 1462 1461 1459 1456 1452 1449 1446 1443 1437 1435 1431 1428 1423 1418 1414 1407 1404 1400 1396
1467 1466 1465 1465 1464 1462 1461 1459 1457 1455 1453 1449 1445 1441 1438 1436 1433 1427 1424 1419 1415 1411 1406 1399 1391 1392 1388
1464 1463 1462 1460 1459 1457 1455 1453 1451 1449 1447 1444 1440 1436 1431 1426 1423 1422 1415 1411 1406 1401 1398 1393 1385 1380 1378